Location: De Domp
(53.0311°N, 5.6772°E)
Time: 06:55:37
(UTC+00:00)

Daily predictions for brighter satellites

Satellite Brightness Start Highest point End
(mag) Time Altitude Azimuth Time Altitude Azimuth Time Altitude Azimuth
Cosmos 2322 Rocket 2.7 20:46:56 10° SW 20:52:37 69° NW 20:58:21 10° NNE
SL-16 R/B 3.0 20:47:08 10° SW 20:52:44 58° NW 20:58:22 10° NNE
Cosmos 1802 Rocket 4.1 20:47:34 10° N 20:53:53 89° W 21:00:15 10° S
SPOT 5 3.0 20:49:21 10° SSE 20:54:23 74° ENE 20:59:11 10° NNW
Cosmos 1459 Rocket 4.2 20:49:16 10° NNW 20:55:19 74° W 21:01:22 10° S
Cosmos 1975 Rocket 3.5 20:51:48 10° SSW 20:56:09 68° WNW 21:00:35 10° N
Meteor 1-24 Rocket 4.5 20:52:32 10° SSE 20:57:20 34° E 21:02:17 10° NNE
Cosmos 1302 Rocket 4.4 20:54:25 10° S 20:59:21 43° ESE 21:04:19 10° NE
Cosmos 1300 2.8 20:58:16 10° N 21:02:05 66° ENE 21:05:53 10° SSE
Resurs 01 Rocket 3.6 21:03:42 10° SSW 21:07:20 25° W 21:11:01 10° NW
USA 267 3.7 21:05:38 10° E 21:12:07 68° N 21:18:37 10° WNW
Cosmos 1340 2.6 21:09:00 10° S 21:12:45 70° E 21:16:31 10° NNE
Cosmos 2278 Rocket 2.5 21:09:23 10° NNW 21:15:04 63° NE 21:20:41 10° SE
Cosmos 1844 Rocket 4.0 21:10:44 10° NW 21:15:45 33° WSW 21:20:45 10° SSW
Cosmos 2322 3.8 21:10:34 10° SSW 21:16:07 62° ESE 21:21:43 10° NE
COSMOS 2428 3.1 21:12:26 10° S 21:17:53 47° ESE 21:23:22 10° NE
Cosmos 389 Rocket 3.0 21:17:50 10° N 21:21:09 44° ENE 21:24:17 11° SE
Cosmos 1867 3.7 21:18:03 10° NW 21:23:34 73° SW 21:28:54 11° SSE
SL-23 DEB 4.4 21:23:50 10° W 21:27:44 70° S 21:34:21 10° ESE
Cosmos 968 Rocket 3.6 21:23:20 10° NNW 21:28:27 73° WSW 21:33:29 10° SSE
Cosmos 1486 Rocket 4.0 21:28:42 10° NNW 21:33:58 84° WSW 21:38:52 12° SSE
SJ 16-02 3.5 21:32:15 10° N 21:35:18 18° NE 21:38:21 10° E
Cosmos 1626 3.3 21:32:14 10° SSW 21:35:46 43° WNW 21:39:20 10° N
FALCON 9 DEB 3.0 21:34:08 10° WSW 21:37:34 78° S 21:41:00 10° E
Meteor 2-10 Rocket 3.5 21:32:46 10° NNW 21:37:53 82° ENE 21:42:36 12° SSE
Cosmos 1606 Rocket 3.8 21:34:06 10° N 21:38:34 62° ENE 21:42:32 13° SSE
Cosmos 2123 Rocket 4.2 21:32:17 10° SSW 21:38:37 80° WNW 21:45:00 10° N
Cosmos 2233 Rocket 4.0 21:33:12 10° N 21:39:23 86° W 21:45:34 10° S
Cosmos 1943 Rocket 3.7 21:35:38 10° NNW 21:40:26 29° NE 21:45:13 10° E
Uosat 12 SS-18 rocket 4.4 21:37:57 10° SSW 21:42:16 51° SE 21:47:19 10° NE
Cosmos 1992 Rocket 4.4 21:38:17 10° S 21:43:13 44° ESE 21:48:11 10° NE
ARIANE 5 R/B 4.1 21:39:54 10° SSW 21:43:55 32° W 21:47:59 10° NNW
Cosmos 1354 Rocket 4.2 21:44:52 10° NNW 21:50:14 73° ENE 21:55:00 13° SSE
ATLAS CENTAUR R/B 3.4 21:47:28 10° WNW 21:50:38 20° WSW 21:53:55 10° SSW
Cosmos 1346 Rocket 3.0 21:47:03 11° S 21:50:46 59° E 21:54:45 10° NNE
BREEZE-M DEB (TANK) 4.3 21:47:36 10° SW 21:55:59 27° SSE 21:59:21 10° ESE
Cosmos 1980 4.3 21:51:14 11° S 21:56:16 39° ESE 22:01:31 10° NE
ATLAS 3B R/B 2.7 21:51:37 10° SW 21:58:12 88° SE 22:05:06 10° NE
Lacrosse 4 Rocket 4.4 21:57:26 10° N 21:59:03 12° NNE 22:00:40 10° NE
SL-4 R/B 2.9 21:56:46 10° SSW 22:00:07 25° SSE 22:03:18 10° E
ALOS 2 3.8 21:57:54 10° SE 22:01:43 32° ENE 22:05:39 10° N
FALCON 9 DEB 3.0 21:58:51 10° SW 22:01:54 50° SSE 22:04:58 10° E
Cosmos 1607 4.1 22:01:04 10° NW 22:07:28 69° SW 22:12:53 14° SSE
Cosmos 2219 Rocket 2.5 22:02:16 10° SW 22:07:57 73° NW 22:13:40 10° NNE
Meteor 2-5 Rocket 4.1 22:02:55 10° SSW 22:08:25 63° WNW 22:14:04 10° N
Lacrosse 5 rocket 1.3 22:05:44 10° WSW 22:09:21 68° NNW 22:12:56 10° ENE
ERS-1 Rocket 4.5 22:05:14 10° SSW 22:09:37 29° W 22:14:01 10° NNW
Cosmos 2333 Rocket 2.7 22:03:56 10° SW 22:09:39 65° NW 22:15:22 10° NNE
Cosmos 2228 3.5 22:05:57 10° NNW 22:10:18 57° W 22:14:06 13° S
Cosmos 1703 4.4 22:08:43 15° SE 22:11:14 29° E 22:14:42 10° NNE
Iridium 2 3.7 22:12:19 16° S 22:15:10 69° E 22:18:55 10° N
FALCON 9 DEB 2.7 22:14:19 10° WSW 22:17:24 68° SSE 22:20:30 10° E
Meteor 2-1 Rocket 4.3 22:12:10 10° N 22:17:42 72° ENE 22:22:14 16° SSE
USA 215 3.9 22:12:57 10° ENE 22:18:49 34° SE 22:24:38 10° SSW
Terra 3.4 22:20:48 10° SSW 22:24:52 28° W 22:28:59 10° NW
FALCON 9 DEB 2.7 22:22:21 10° WSW 22:25:27 66° SSE 22:28:34 10° E
COBE Rocket 4.1 22:22:10 16° SSE 22:26:10 65° ENE 22:31:01 10° N
SL-16 R/B 3.5 22:23:55 15° SSE 22:27:15 25° ESE 22:31:47 10° NE
Cosmos 1455 2.3 22:23:27 10° NNW 22:27:16 68° W 22:29:59 18° S
FALCON 9 DEB 2.7 22:24:52 10° WSW 22:27:59 72° SSE 22:31:05 10° E
Cosmos 2237 Rocket 2.3 22:23:44 11° SSW 22:29:02 61° ESE 22:34:36 10° NE
Cosmos 1464 Rocket 4.1 22:22:46 10° N 22:29:11 87° E 22:34:26 16° S
H-2A R/B 4.4 22:27:39 10° N 22:31:34 44° WNW 22:35:27 10° SW
Cosmos 1184 Rocket 2.8 22:29:49 21° S 22:31:49 63° E 22:35:03 10° NNE
Cosmos 2360 Rocket 4.2 22:28:06 10° W 22:33:01 30° NW 22:37:57 10° NNE
Cosmos 2369 Rocket 3.5 22:29:21 10° NNW 22:34:40 37° NE 22:39:56 10° ESE
CENTAUR R/B 4.5 22:29:43 10° WNW 22:36:07 39° N 22:43:34 10° ENE
Cosmos 192 4.5 22:33:48 15° S 22:37:45 60° ESE 22:42:36 10° NNE
GEOS 3 Rocket 3.8 22:38:08 16° SSE 22:42:25 63° SW 22:47:43 10° NW
ATLAS CENTAUR R/B 4.0 22:40:44 14° S 22:45:13 45° ESE 22:57:38 10° ENE
USA 32 4.5 22:44:17 10° N 22:49:26 54° ENE 22:53:23 17° SSE
Aureole 3 4.5 22:46:27 10° N 22:49:56 36° ENE 22:53:19 14° SE
USA 267 3.2 22:48:35 10° ESE 22:55:08 77° SSW 23:01:43 10° WNW
Cosmos 1812 Rocket 3.9 22:51:59 10° N 22:56:18 56° ENE 22:59:22 18° SSE
Okean 1-7 Rocket 3.6 22:54:15 18° S 22:57:29 86° ESE 23:01:57 10° NNE
Cosmos 2278 Rocket 3.5 22:53:58 10° NW 22:58:48 29° WSW 23:02:45 14° SSW
BREEZE-M DEB (TANK) 2.9 22:56:25 10° WSW 22:59:47 62° S 23:09:27 10° E
GENESIS II 4.3 22:56:04 10° SW 22:59:58 75° NW 23:03:54 10° NE
Cosmos 2058 Rocket 3.8 22:57:02 10° NNW 23:01:17 44° W 23:04:24 17° SSW
Cosmos 2297 3.7 22:56:02 10° NNW 23:01:42 86° WSW 23:06:11 17° SSE
COSMOS 2428 3.9 22:56:48 10° WSW 23:02:16 43° NW 23:07:46 10° NNE
Cosmos 2034 Rocket 4.1 22:59:07 10° NNW 23:05:19 75° W 23:10:01 18° S
Thor Agena Rocket 4.5 23:01:33 10° NNE 23:06:24 36° E 23:09:46 17° SSE
SAR-Lupe-2 4.3 23:04:18 10° NNE 23:07:43 39° E 23:09:33 22° SSE
NOSS 0 Rocket 4.3 23:03:58 10° SW 23:10:10 68° NW 23:16:25 10° NNE
FALCON 9 DEB 3.0 23:11:01 10° W 23:14:27 85° SSW 23:17:52 10° E
SJ 16-02 1.3 23:10:06 10° NNW 23:14:31 85° WSW 23:17:27 21° SSE
Meteor 1-21 Rocket 4.5 23:14:30 14° SSW 23:19:20 69° WNW 23:25:07 10° N
Meteor 1-27 4.4 23:17:18 10° N 23:22:52 68° ENE 23:27:14 17° SSE
GP-B 3.3 23:18:40 10° N 23:23:06 65° E 23:26:01 21° SSE
Meteor 1-11 4.4 23:19:57 19° S 23:23:56 64° E 23:29:28 10° NNE
Cosmos 1943 Rocket 2.1 23:19:13 10° NW 23:24:44 75° WSW 23:28:52 18° SSE
Meteor 1-4 Rocket 3.1 23:21:28 10° NNW 23:24:48 44° W 23:26:36 23° SSW
MTI 3.5 23:27:55 10° NNE 23:30:59 81° ESE 23:32:27 28° S
Cosmos 1892 3.9 23:30:16 18° SE 23:32:30 33° E 23:36:01 10° NNE
Cosmos 1441 Rocket 4.1 23:29:44 15° SW 23:32:41 42° WNW 23:36:20 10° N
Cosmos 1869 3.8 23:31:15 10° N 23:35:18 56° ENE 23:38:08 18° SSE
CZ-2D R/B 4.5 23:34:22 10° ENE 23:35:40 11° E 23:36:58 10° E
FALCON 9 DEB 2.8 23:34:24 10° W 23:37:33 88° N 23:40:42 10° E
ALOS 2 3.5 23:35:17 18° SSW 23:38:00 37° W 23:42:06 10° NNW
Cosmos 990 Rocket 4.1 23:33:14 10° NNW 23:38:28 76° ENE 23:42:50 15° SSE
Tsikada Rocket 4.0 23:34:13 18° SSW 23:39:01 83° W 23:45:14 10° N
Lacrosse 4 Rocket 3.4 23:35:30 10° NNW 23:39:06 27° NE 23:42:38 10° E
SL-4 R/B 1.7 23:35:25 10° WSW 23:39:18 60° SSE 23:42:55 10° E
USA 229 DEB 4.2 23:38:46 19° S 23:43:02 42° ESE 23:49:24 10° NE
USA 229 4.2 23:38:53 19° S 23:43:08 41° ESE 23:49:30 10° NE
Lacrosse 5 rocket 2.3 23:45:20 10° WNW 23:48:47 42° N 23:52:14 10° ENE
ATLAS 3B R/B 4.0 23:43:20 10° W 23:49:37 41° NNW 23:56:11 10° NE
NOSS 3-1 (C) 3.4 23:46:44 17° SSW 23:50:57 62° SE 23:57:21 10° NE
Cosmos 1626 Rocket 4.3 23:49:24 16° SW 23:52:45 47° WNW 23:57:04 10° N
FALCON 9 DEB 2.7 23:49:53 10° W 23:53:00 90° SSW 23:56:06 10° E
Cosmos 1953 Rocket 4.3 23:50:42 18° SSE 23:53:33 43° E 23:57:45 10° NNE
Cosmos 1937 Rocket 3.9 23:48:23 10° NNW 23:53:42 63° ENE 23:58:58 10° SE
Cosmos 1408 3.2 23:53:09 21° SSE 23:55:15 46° E 23:58:48 10° NNE
